TimeMDT,TemperatureF,Dew PointF,Humidity,Sea Level PressureIn,VisibilityMPH,Wind Direction,Wind SpeedMPH,Gust SpeedMPH,PrecipitationIn,Events,Conditions,WindDirDegrees,DateUTC
12:53 AM,52.0,48.9,89,30.20,10.0,East,4.6,-,N/A,,Clear,80,2013-07-17 06:53:00
1:53 AM,51.1,48.9,92,30.20,10.0,East,6.9,-,N/A,,Clear,90,2013-07-17 07:53:00
2:53 AM,52.0,50.0,93,30.19,10.0,ENE,9.2,-,N/A,,Clear,60,2013-07-17 08:53:00
3:53 AM,51.1,48.9,92,30.20,5.0,East,8.1,-,N/A,,Clear,90,2013-07-17 09:53:00
4:24 AM,51.8,50.0,94,30.41,5.0,East,4.6,-,N/A,,Scattered Clouds,80,2013-07-17 10:24:00
4:34 AM,51.8,50.0,94,30.42,2.5,East,5.8,-,N/A,,Mostly Cloudy,90,2013-07-17 10:34:00
4:38 AM,51.8,50.0,94,30.42,0.8,East,5.8,-,N/A,,Mist,90,2013-07-17 10:38:00
4:48 AM,52.0,51.1,97,30.21,0.2,East,5.8,-,N/A,Fog,Fog,90,2013-07-17 10:48:00
5:03 AM,51.8,51.8,100,30.42,0.2,East,9.2,-,N/A,Fog,Fog,90,2013-07-17 11:03:00
5:24 AM,51.8,51.8,100,30.42,0.5,East,8.1,-,N/A,Fog,Fog,80,2013-07-17 11:24:00
5:33 AM,51.8,51.8,100,30.43,2.0,East,12.7,-,N/A,,Overcast,90,2013-07-17 11:33:00
5:41 AM,51.8,51.8,100,30.43,5.0,East,10.4,-,N/A,,Overcast,90,2013-07-17 11:41:00
5:53 AM,52.0,51.1,97,30.24,5.0,East,11.5,-,N/A,,Overcast,80,2013-07-17 11:53:00
6:53 AM,53.1,51.1,93,30.26,4.0,ENE,6.9,-,N/A,,Overcast,70,2013-07-17 12:53:00
7:51 AM,53.6,51.8,94,30.46,1.0,East,12.7,-,N/A,,Overcast,80,2013-07-17 13:51:00
7:53 AM,53.1,51.1,93,30.28,1.2,East,12.7,-,N/A,,Overcast,80,2013-07-17 13:53:00
7:57 AM,53.6,51.8,94,30.47,3.0,East,10.4,-,N/A,,Overcast,80,2013-07-17 13:57:00
8:36 AM,53.6,51.8,94,30.47,7.0,East,10.4,-,N/A,,Overcast,80,2013-07-17 14:36:00
8:53 AM,55.0,51.1,86,30.29,9.0,East,9.2,-,N/A,,Overcast,90,2013-07-17 14:53:00
9:19 AM,55.4,51.8,88,30.47,10.0,East,9.2,-,N/A,,Mostly Cloudy,90,2013-07-17 15:19:00
9:41 AM,57.2,51.8,82,30.47,10.0,East,11.5,-,N/A,,Overcast,80,2013-07-17 15:41:00
9:53 AM,57.9,51.1,78,30.26,10.0,East,11.5,-,N/A,,Mostly Cloudy,80,2013-07-17 15:53:00
10:53 AM,60.1,52.0,75,30.27,10.0,East,12.7,-,N/A,,Overcast,90,2013-07-17 16:53:00
11:53 AM,60.1,51.1,72,30.27,10.0,East,11.5,-,N/A,,Overcast,90,2013-07-17 17:53:00
12:53 PM,64.0,51.1,63,30.25,10.0,East,13.8,-,N/A,,Mostly Cloudy,100,2013-07-17 18:53:00
1:00 PM,64.4,50.0,59,30.46,10.0,ESE,12.7,-,N/A,,Mostly Cloudy,110,2013-07-17 19:00:00
1:53 PM,64.9,51.1,61,30.25,10.0,ESE,13.8,20.7,N/A,,Mostly Cloudy,110,2013-07-17 19:53:00
2:53 PM,64.9,51.1,61,30.22,10.0,ESE,15.0,21.9,N/A,,Partly Cloudy,110,2013-07-17 20:53:00
3:53 PM,66.0,50.0,56,30.21,10.0,East,10.4,-,N/A,,Partly Cloudy,90,2013-07-17 21:53:00
4:53 PM,68.0,50.0,52,30.19,10.0,ESE,16.1,19.6,N/A,,Partly Cloudy,110,2013-07-17 22:53:00
5:53 PM,66.0,50.0,56,30.19,10.0,East,17.3,23.0,N/A,,Partly Cloudy,100,2013-07-17 23:53:00
6:53 PM,64.0,51.1,63,30.19,10.0,SE,16.1,-,N/A,,Partly Cloudy,130,2013-07-18 00:53:00
7:53 PM,62.1,51.1,67,30.21,10.0,ESE,15.0,-,N/A,,Clear,110,2013-07-18 01:53:00
8:53 PM,60.1,52.0,75,30.22,10.0,ESE,10.4,-,N/A,,Scattered Clouds,110,2013-07-18 02:53:00
9:05 PM,60.8,51.8,72,30.43,10.0,ESE,11.5,-,N/A,,Mostly Cloudy,120,2013-07-18 03:05:00
9:31 PM,59.0,51.8,77,30.44,10.0,ESE,11.5,-,N/A,,Scattered Clouds,120,2013-07-18 03:31:00
9:53 PM,57.9,52.0,81,30.24,10.0,ESE,8.1,-,N/A,,Partly Cloudy,110,2013-07-18 03:53:00
10:40 PM,57.2,53.6,88,30.46,10.0,ESE,6.9,-,N/A,,Mostly Cloudy,110,2013-07-18 04:40:00
10:53 PM,57.0,52.0,83,30.25,10.0,ESE,6.9,-,N/A,,Mostly Cloudy,110,2013-07-18 04:53:00
11:28 PM,57.2,53.6,88,30.46,10.0,ESE,8.1,-,N/A,,Overcast,120,2013-07-18 05:28:00
11:42 PM,57.2,53.6,88,30.46,10.0,ESE,8.1,-,N/A,,Mostly Cloudy,120,2013-07-18 05:42:00
11:53 PM,57.0,53.1,87,30.25,10.0,ESE,5.8,-,N/A,,Mostly Cloudy,110,2013-07-18 05:53:00